Year,Month,Day,Hour,Minute,Value (Times are PST for temperature in C)
2008,06,29,00,00,19.10
2008,06,29,00,01,19.10
2008,06,29,00,02,19.10
2008,06,29,00,03,19.10
2008,06,29,00,04,19.10
2008,06,29,00,05,19.00
2008,06,29,00,06,19.10
2008,06,29,00,07,19.10
2008,06,29,00,08,19.10
2008,06,29,00,09,19.10
2008,06,29,00,10,19.10
2008,06,29,00,11,19.10
2008,06,29,00,12,19.10
2008,06,29,00,13,19.10
2008,06,29,00,14,19.10
2008,06,29,00,15,19.10
2008,06,29,00,16,19.10
2008,06,29,00,17,19.10
2008,06,29,00,18,19.10
2008,06,29,00,19,19.10
2008,06,29,00,20,19.10
2008,06,29,00,21,19.10
2008,06,29,00,22,19.10
2008,06,29,00,23,19.10
2008,06,29,00,24,19.10
2008,06,29,00,25,19.10
2008,06,29,00,26,19.10
2008,06,29,00,27,19.00
2008,06,29,00,28,19.00
2008,06,29,00,29,19.00
2008,06,29,00,30,19.00
2008,06,29,00,31,19.00
2008,06,29,00,32,18.90
2008,06,29,00,33,18.90
2008,06,29,00,34,18.90
2008,06,29,00,35,18.90
2008,06,29,00,36,18.90
2008,06,29,00,37,18.90
2008,06,29,00,38,18.90
2008,06,29,00,39,18.90
2008,06,29,00,40,18.90
2008,06,29,00,41,18.80
2008,06,29,00,42,18.80
2008,06,29,00,43,18.80
2008,06,29,00,44,18.80
2008,06,29,00,45,18.80
2008,06,29,00,46,18.80
2008,06,29,00,47,18.80
2008,06,29,00,48,18.80
2008,06,29,00,49,18.80
2008,06,29,00,50,18.80
2008,06,29,00,51,18.80
2008,06,29,00,52,18.80
2008,06,29,00,53,18.90
2008,06,29,00,54,18.90
2008,06,29,00,55,18.90
2008,06,29,00,56,18.90
2008,06,29,00,57,18.90
2008,06,29,00,58,18.80
2008,06,29,00,59,18.80
2008,06,29,01,00,18.80
2008,06,29,01,01,18.80
2008,06,29,01,02,18.80
2008,06,29,01,03,18.80
2008,06,29,01,04,18.80
2008,06,29,01,05,18.80
2008,06,29,01,06,18.70
2008,06,29,01,07,18.70
2008,06,29,01,08,18.70
2008,06,29,01,09,18.70
2008,06,29,01,10,18.70
2008,06,29,01,11,18.70
2008,06,29,01,12,18.70
2008,06,29,01,13,18.70
2008,06,29,01,14,18.70
2008,06,29,01,15,18.70
2008,06,29,01,16,18.70
2008,06,29,01,17,18.60
2008,06,29,01,18,18.60
2008,06,29,01,19,18.60
2008,06,29,01,20,18.60
2008,06,29,01,21,18.60
2008,06,29,01,22,18.60
2008,06,29,01,23,18.60
2008,06,29,01,24,18.60
2008,06,29,01,25,18.60
2008,06,29,01,26,18.60
2008,06,29,01,27,18.60
2008,06,29,01,28,18.60
2008,06,29,01,29,18.60
2008,06,29,01,30,18.60
2008,06,29,01,31,18.60
2008,06,29,01,32,18.50
2008,06,29,01,33,18.50
2008,06,29,01,34,18.50
2008,06,29,01,35,18.50
2008,06,29,01,36,18.50
2008,06,29,01,37,18.50
2008,06,29,01,38,18.50
2008,06,29,01,39,18.60
2008,06,29,01,40,18.60
2008,06,29,01,41,18.70
2008,06,29,01,42,18.80
2008,06,29,01,43,18.80
2008,06,29,01,44,18.90
2008,06,29,01,45,18.90
2008,06,29,01,46,19.00
2008,06,29,01,47,19.00
2008,06,29,01,48,19.00
2008,06,29,01,49,19.00
2008,06,29,01,50,19.00
2008,06,29,01,51,19.00
2008,06,29,01,52,18.90
2008,06,29,01,53,18.90
2008,06,29,01,54,18.90
2008,06,29,01,55,18.90
2008,06,29,01,56,18.80
2008,06,29,01,57,18.80
2008,06,29,01,58,18.80
2008,06,29,01,59,18.80
2008,06,29,02,00,18.80
2008,06,29,02,01,18.80
2008,06,29,02,02,18.80
2008,06,29,02,03,18.70
2008,06,29,02,04,18.70
2008,06,29,02,05,18.70
2008,06,29,02,06,18.60
2008,06,29,02,07,18.50
2008,06,29,02,08,18.40
2008,06,29,02,09,18.20
2008,06,29,02,10,18.00
2008,06,29,02,11,17.80
2008,06,29,02,12,17.60
2008,06,29,02,13,17.50
2008,06,29,02,14,17.30
2008,06,29,02,15,17.20
2008,06,29,02,16,17.20
2008,06,29,02,17,17.10
2008,06,29,02,18,17.10
2008,06,29,02,19,17.10
2008,06,29,02,20,17.00
2008,06,29,02,21,17.00
2008,06,29,02,22,17.00
2008,06,29,02,23,16.90
2008,06,29,02,24,16.90
2008,06,29,02,25,16.90
2008,06,29,02,26,16.90
2008,06,29,02,27,16.90
2008,06,29,02,28,16.80
2008,06,29,02,29,16.80
2008,06,29,02,30,16.80
2008,06,29,02,31,16.80
2008,06,29,02,32,16.80
2008,06,29,02,33,16.80
2008,06,29,02,34,16.80
2008,06,29,02,35,16.70
2008,06,29,02,36,16.80
2008,06,29,02,37,16.80
2008,06,29,02,38,16.80
2008,06,29,02,39,16.80
2008,06,29,02,40,16.90
2008,06,29,02,41,16.90
2008,06,29,02,42,16.90
2008,06,29,02,43,16.90
2008,06,29,02,44,17.00
2008,06,29,02,45,17.00
2008,06,29,02,46,17.00
2008,06,29,02,47,17.00
2008,06,29,02,48,17.00
2008,06,29,02,49,17.00
2008,06,29,02,50,17.00
2008,06,29,02,51,17.00
2008,06,29,02,52,17.00
2008,06,29,02,53,17.00
2008,06,29,02,54,17.00
2008,06,29,02,55,17.00
2008,06,29,02,56,17.00
2008,06,29,02,57,17.10
2008,06,29,02,58,17.10
2008,06,29,02,59,17.10
2008,06,29,03,00,17.10
2008,06,29,03,01,17.10
2008,06,29,03,02,17.20
2008,06,29,03,03,17.20
2008,06,29,03,04,17.20
2008,06,29,03,05,17.20
2008,06,29,03,06,17.20
2008,06,29,03,07,17.20
2008,06,29,03,08,17.20
2008,06,29,03,09,17.20
2008,06,29,03,10,17.20
2008,06,29,03,11,17.20
2008,06,29,03,12,17.10
2008,06,29,03,13,17.10
2008,06,29,03,14,17.10
2008,06,29,03,15,17.10
2008,06,29,03,16,17.10
2008,06,29,03,17,17.00
2008,06,29,03,18,17.00
2008,06,29,03,19,17.00
2008,06,29,03,20,17.00
2008,06,29,03,21,16.90
2008,06,29,03,22,16.90
2008,06,29,03,23,16.90
2008,06,29,03,24,16.90
2008,06,29,03,25,16.90
2008,06,29,03,26,16.90
2008,06,29,03,27,16.90
2008,06,29,03,28,16.90
2008,06,29,03,29,16.90
2008,06,29,03,30,16.90
2008,06,29,03,31,16.90
2008,06,29,03,32,16.90
2008,06,29,03,33,16.90
2008,06,29,03,34,16.80
2008,06,29,03,35,16.80
2008,06,29,03,36,16.80
2008,06,29,03,37,16.80
2008,06,29,03,38,16.80
2008,06,29,03,39,16.80
2008,06,29,03,40,16.80
2008,06,29,03,41,16.80
2008,06,29,03,42,16.80
2008,06,29,03,43,16.80
2008,06,29,03,44,16.70
2008,06,29,03,45,16.70
2008,06,29,03,46,16.70
2008,06,29,03,47,16.70
2008,06,29,03,48,16.70
2008,06,29,03,49,16.70
2008,06,29,03,50,16.70
2008,06,29,03,51,16.70
2008,06,29,03,52,16.70
2008,06,29,03,53,16.70
2008,06,29,03,54,16.70
2008,06,29,03,55,16.70
2008,06,29,03,56,16.70
2008,06,29,03,57,16.70
2008,06,29,03,58,16.70
2008,06,29,03,59,16.70
2008,06,29,04,00,16.70
2008,06,29,04,01,16.70
2008,06,29,04,02,16.70
2008,06,29,04,03,16.70
2008,06,29,04,04,16.70
2008,06,29,04,05,16.70
2008,06,29,04,06,16.70
2008,06,29,04,07,16.70
2008,06,29,04,08,16.80
2008,06,29,04,09,16.70
2008,06,29,04,10,16.80
2008,06,29,04,11,16.80
2008,06,29,04,12,16.80
2008,06,29,04,13,16.80
2008,06,29,04,14,16.80
2008,06,29,04,15,16.80
2008,06,29,04,16,16.80
2008,06,29,04,17,16.80
2008,06,29,04,18,16.80
2008,06,29,04,19,16.80
2008,06,29,04,20,16.80
2008,06,29,04,21,16.80
2008,06,29,04,22,16.80
2008,06,29,04,23,16.80
2008,06,29,04,24,16.80
2008,06,29,04,25,16.80
2008,06,29,04,26,16.80
2008,06,29,04,27,16.80
2008,06,29,04,28,16.80
2008,06,29,04,29,16.80
2008,06,29,04,30,16.80
2008,06,29,04,31,16.70
2008,06,29,04,32,16.70
2008,06,29,04,33,16.70
2008,06,29,04,34,16.70
2008,06,29,04,35,16.70
2008,06,29,04,36,16.70
2008,06,29,04,37,16.70
2008,06,29,04,38,16.70
2008,06,29,04,39,16.70
2008,06,29,04,40,16.70
2008,06,29,04,41,16.70
2008,06,29,04,42,16.70
2008,06,29,04,43,16.70
2008,06,29,04,44,16.70
2008,06,29,04,45,16.70
2008,06,29,04,46,16.70
2008,06,29,04,47,16.70
2008,06,29,04,48,16.70
2008,06,29,04,49,16.70
2008,06,29,04,50,16.70
2008,06,29,04,51,16.70
2008,06,29,04,52,16.70
2008,06,29,04,53,16.70
2008,06,29,04,54,16.70
2008,06,29,04,55,16.70
2008,06,29,04,56,16.70
2008,06,29,04,57,16.80
2008,06,29,04,58,16.80
2008,06,29,04,59,16.80
2008,06,29,05,00,16.80
2008,06,29,05,01,16.80
2008,06,29,05,02,16.80
2008,06,29,05,03,16.80
2008,06,29,05,04,16.80
2008,06,29,05,05,16.80
2008,06,29,05,06,16.80
2008,06,29,05,07,16.80
2008,06,29,05,08,16.80
2008,06,29,05,09,16.80
2008,06,29,05,10,16.80
2008,06,29,05,11,16.90
2008,06,29,05,12,16.90
2008,06,29,05,13,16.90
2008,06,29,05,14,16.90
2008,06,29,05,15,16.90
2008,06,29,05,16,16.90
2008,06,29,05,17,16.90
2008,06,29,05,18,16.80
2008,06,29,05,19,16.80
2008,06,29,05,20,16.80
2008,06,29,05,21,16.80
2008,06,29,05,22,16.80
2008,06,29,05,23,16.80
2008,06,29,05,24,16.70
2008,06,29,05,25,16.70
2008,06,29,05,26,16.60
2008,06,29,05,27,16.60
2008,06,29,05,28,16.60
2008,06,29,05,29,16.60
2008,06,29,05,30,16.50
2008,06,29,05,31,16.40
2008,06,29,05,32,16.40
2008,06,29,05,33,16.40
2008,06,29,05,34,16.40
2008,06,29,05,35,16.40
2008,06,29,05,36,16.30
2008,06,29,05,37,16.30
2008,06,29,05,38,16.30
2008,06,29,05,39,16.30
2008,06,29,05,40,16.30
2008,06,29,05,41,16.30
2008,06,29,05,42,16.30
2008,06,29,05,43,16.30
2008,06,29,05,44,16.20
2008,06,29,05,45,16.20
2008,06,29,05,46,16.10
2008,06,29,05,47,16.00
2008,06,29,05,48,15.80
2008,06,29,05,49,15.60
2008,06,29,05,50,15.50
2008,06,29,05,51,15.40
2008,06,29,05,52,15.30
2008,06,29,05,53,15.20
2008,06,29,05,54,15.00
2008,06,29,05,55,15.00
2008,06,29,05,56,14.80
2008,06,29,05,57,14.60
2008,06,29,05,58,14.50
2008,06,29,05,59,14.40
2008,06,29,06,00,14.30
2008,06,29,06,01,14.30
2008,06,29,06,02,14.30
2008,06,29,06,03,14.20
2008,06,29,06,04,14.20
2008,06,29,06,05,14.20
2008,06,29,06,06,14.20
2008,06,29,06,07,14.30
2008,06,29,06,08,14.30
2008,06,29,06,09,14.30
2008,06,29,06,10,14.30
2008,06,29,06,11,14.40
2008,06,29,06,12,14.40
2008,06,29,06,13,14.40
2008,06,29,06,14,14.50
2008,06,29,06,15,14.60
2008,06,29,06,16,14.60
2008,06,29,06,17,14.70
2008,06,29,06,18,14.80
2008,06,29,06,19,14.90
2008,06,29,06,20,15.00
2008,06,29,06,21,15.00
2008,06,29,06,22,15.00
2008,06,29,06,23,15.00
2008,06,29,06,24,15.20
2008,06,29,06,25,15.20
2008,06,29,06,26,15.30
2008,06,29,06,27,15.30
2008,06,29,06,28,15.40
2008,06,29,06,29,15.40
2008,06,29,06,30,15.50
2008,06,29,06,31,15.50
2008,06,29,06,32,15.50
2008,06,29,06,33,15.40
2008,06,29,06,34,15.30
2008,06,29,06,35,15.20
2008,06,29,06,36,15.00
2008,06,29,06,37,15.00
2008,06,29,06,38,15.00
2008,06,29,06,39,14.90
2008,06,29,06,40,14.90
2008,06,29,06,41,15.00
2008,06,29,06,42,15.00
2008,06,29,06,43,15.00
2008,06,29,06,44,15.00
2008,06,29,06,45,15.00
2008,06,29,06,46,15.20
2008,06,29,06,47,15.30
2008,06,29,06,48,15.40
2008,06,29,06,49,15.50
2008,06,29,06,50,15.60
2008,06,29,06,51,15.60
2008,06,29,06,52,15.60
2008,06,29,06,53,15.50
2008,06,29,06,54,15.50
2008,06,29,06,55,15.40
2008,06,29,06,56,15.40
2008,06,29,06,57,15.30
2008,06,29,06,58,15.20
2008,06,29,06,59,15.00
2008,06,29,07,00,15.00
2008,06,29,07,01,15.00
2008,06,29,07,02,15.00
2008,06,29,07,03,14.90
2008,06,29,07,04,14.90
2008,06,29,07,05,14.90
2008,06,29,07,06,15.00
2008,06,29,07,07,15.00
2008,06,29,07,08,15.00
2008,06,29,07,09,15.00
2008,06,29,07,10,15.00
2008,06,29,07,11,15.10
2008,06,29,07,12,15.20
2008,06,29,07,13,15.30
2008,06,29,07,14,15.30
2008,06,29,07,15,15.40
2008,06,29,07,16,15.40
2008,06,29,07,17,15.50
2008,06,29,07,18,15.60
2008,06,29,07,19,15.60
2008,06,29,07,20,15.60
2008,06,29,07,21,15.70
2008,06,29,07,22,15.70
2008,06,29,07,23,15.60
2008,06,29,07,24,15.70
2008,06,29,07,25,15.70
2008,06,29,07,26,15.60
2008,06,29,07,27,15.60
2008,06,29,07,28,15.70
2008,06,29,07,29,15.70
2008,06,29,07,30,15.80
2008,06,29,07,31,15.80
2008,06,29,07,32,15.80
2008,06,29,07,33,15.80
2008,06,29,07,34,15.80
2008,06,29,07,35,15.80
2008,06,29,07,36,15.80
2008,06,29,07,37,15.80
2008,06,29,07,38,15.80
2008,06,29,07,39,15.80
2008,06,29,07,40,15.90
2008,06,29,07,41,15.90
2008,06,29,07,42,16.00
2008,06,29,07,43,16.00
2008,06,29,07,44,16.10
2008,06,29,07,45,16.10
2008,06,29,07,46,16.20
2008,06,29,07,47,16.20
2008,06,29,07,48,16.20
2008,06,29,07,49,16.30
2008,06,29,07,50,16.30
2008,06,29,07,51,16.40
2008,06,29,07,52,16.50
2008,06,29,07,53,16.50
2008,06,29,07,54,16.60
2008,06,29,07,55,16.70
2008,06,29,07,56,16.80
2008,06,29,07,57,16.90
2008,06,29,07,58,16.90
2008,06,29,07,59,17.00
2008,06,29,08,00,17.00
2008,06,29,08,01,17.10
2008,06,29,08,02,17.20
2008,06,29,08,03,17.20
2008,06,29,08,04,17.30
2008,06,29,08,05,17.40
2008,06,29,08,06,17.50
2008,06,29,08,07,17.60
2008,06,29,08,08,17.70
2008,06,29,08,09,17.80
2008,06,29,08,10,17.80
2008,06,29,08,11,17.80
2008,06,29,08,12,17.90
2008,06,29,08,13,18.00
2008,06,29,08,14,18.10
2008,06,29,08,15,18.20
2008,06,29,08,16,18.30
2008,06,29,08,17,18.40
2008,06,29,08,18,18.50
2008,06,29,08,19,18.70
2008,06,29,08,20,18.80
2008,06,29,08,21,18.80
2008,06,29,08,22,18.90
2008,06,29,08,23,19.00
2008,06,29,08,24,19.00
2008,06,29,08,25,19.00
2008,06,29,08,26,18.90
2008,06,29,08,27,18.80
2008,06,29,08,28,18.80
2008,06,29,08,29,18.70
2008,06,29,08,30,18.80
2008,06,29,08,31,18.80
2008,06,29,08,32,18.90
2008,06,29,08,33,19.00
2008,06,29,08,34,19.10
2008,06,29,08,35,19.20
2008,06,29,08,36,19.30
2008,06,29,08,37,19.50
2008,06,29,08,38,19.70
2008,06,29,08,39,19.80
2008,06,29,08,40,19.90
2008,06,29,08,41,20.00
2008,06,29,08,42,20.10
2008,06,29,08,43,20.20
2008,06,29,08,44,20.30
2008,06,29,08,45,20.40
2008,06,29,08,46,20.50
2008,06,29,08,47,20.60
2008,06,29,08,48,20.60
2008,06,29,08,49,20.50
2008,06,29,08,50,20.40
2008,06,29,08,51,20.30
2008,06,29,08,52,20.30
2008,06,29,08,53,20.10
2008,06,29,08,54,20.00
2008,06,29,08,55,19.80
2008,06,29,08,56,19.60
2008,06,29,08,57,19.40
2008,06,29,08,58,19.20
2008,06,29,08,59,19.10
2008,06,29,09,00,19.00
2008,06,29,09,01,19.00
2008,06,29,09,02,19.00
2008,06,29,09,03,19.00
2008,06,29,09,04,19.00
2008,06,29,09,05,19.10
2008,06,29,09,06,19.10
2008,06,29,09,07,19.10
2008,06,29,09,08,19.20
2008,06,29,09,09,19.30
2008,06,29,09,10,19.40
2008,06,29,09,11,19.50
2008,06,29,09,12,19.70
2008,06,29,09,13,19.80
2008,06,29,09,14,19.90
2008,06,29,09,15,19.90
2008,06,29,09,16,19.90
2008,06,29,09,17,20.00
2008,06,29,09,18,20.00
2008,06,29,09,19,19.90
2008,06,29,09,20,19.90
2008,06,29,09,21,19.80
2008,06,29,09,22,19.60
2008,06,29,09,23,19.50
2008,06,29,09,24,19.40
2008,06,29,09,25,19.30
2008,06,29,09,26,19.20
2008,06,29,09,27,19.20
2008,06,29,09,28,19.10
2008,06,29,09,29,19.10
2008,06,29,09,30,19.10
2008,06,29,09,31,19.20
2008,06,29,09,32,19.30
2008,06,29,09,33,19.40
2008,06,29,09,34,19.40
2008,06,29,09,35,19.40
2008,06,29,09,36,19.40
2008,06,29,09,37,19.50
2008,06,29,09,38,19.50
2008,06,29,09,39,19.40
2008,06,29,09,40,19.20
2008,06,29,09,41,18.90
2008,06,29,09,42,18.60
2008,06,29,09,43,18.40
2008,06,29,09,44,18.30
2008,06,29,09,45,18.20
2008,06,29,09,46,18.10
2008,06,29,09,47,18.10
2008,06,29,09,48,18.10
2008,06,29,09,49,18.20
2008,06,29,09,50,18.20
2008,06,29,09,51,18.30
2008,06,29,09,52,18.50
2008,06,29,09,53,18.60
2008,06,29,09,54,18.70
2008,06,29,09,55,18.70
2008,06,29,09,56,18.80
2008,06,29,09,57,19.00
2008,06,29,09,58,19.20
2008,06,29,09,59,19.30
2008,06,29,10,00,19.50
2008,06,29,10,01,19.60
2008,06,29,10,02,19.70
2008,06,29,10,03,19.80
2008,06,29,10,04,19.80
2008,06,29,10,05,19.70
2008,06,29,10,06,19.60
2008,06,29,10,07,19.40
2008,06,29,10,08,19.30
2008,06,29,10,09,19.20
2008,06,29,10,10,19.20
2008,06,29,10,11,19.20
2008,06,29,10,12,19.20
2008,06,29,10,13,19.30
2008,06,29,10,14,19.30
2008,06,29,10,15,19.40
2008,06,29,10,16,19.50
2008,06,29,10,17,19.60
2008,06,29,10,18,19.70
2008,06,29,10,19,19.80
2008,06,29,10,20,19.90
2008,06,29,10,21,20.00
2008,06,29,10,22,19.90
2008,06,29,10,23,19.70
2008,06,29,10,24,19.60
2008,06,29,10,25,19.50
2008,06,29,10,26,19.40
2008,06,29,10,27,19.40
2008,06,29,10,28,19.30
2008,06,29,10,29,19.20
2008,06,29,10,30,19.00
2008,06,29,10,31,18.90
2008,06,29,10,32,18.70
2008,06,29,10,33,18.50
2008,06,29,10,34,18.30
2008,06,29,10,35,18.00
2008,06,29,10,36,17.80
2008,06,29,10,37,17.70
2008,06,29,10,38,17.60
2008,06,29,10,39,17.60
2008,06,29,10,40,17.50
2008,06,29,10,41,17.50
2008,06,29,10,42,17.40
2008,06,29,10,43,17.40
2008,06,29,10,44,17.30
2008,06,29,10,45,17.40
2008,06,29,10,46,17.40
2008,06,29,10,47,17.30
2008,06,29,10,48,17.30
2008,06,29,10,49,17.50
2008,06,29,10,50,17.60
2008,06,29,10,51,17.60
2008,06,29,10,52,17.70
2008,06,29,10,53,17.70
2008,06,29,10,54,17.80
2008,06,29,10,55,17.90
2008,06,29,10,56,18.00
2008,06,29,10,57,18.00
2008,06,29,10,58,18.10
2008,06,29,10,59,18.20
2008,06,29,11,00,18.20
2008,06,29,11,01,18.30
2008,06,29,11,02,18.30
2008,06,29,11,03,18.40
2008,06,29,11,04,18.40
2008,06,29,11,05,18.50
2008,06,29,11,06,18.50
2008,06,29,11,07,18.60
2008,06,29,11,08,18.80
2008,06,29,11,09,18.90
2008,06,29,11,10,19.00
2008,06,29,11,11,19.10
2008,06,29,11,12,19.10
2008,06,29,11,13,19.20
2008,06,29,11,14,19.30
2008,06,29,11,15,19.50
2008,06,29,11,16,19.70
2008,06,29,11,17,19.80
2008,06,29,11,18,20.00
2008,06,29,11,19,20.20
2008,06,29,11,20,20.40
2008,06,29,11,21,20.50
2008,06,29,11,22,20.70
2008,06,29,11,23,21.00
2008,06,29,11,24,21.10
2008,06,29,11,25,21.10
2008,06,29,11,26,21.10
2008,06,29,11,27,21.10
2008,06,29,11,28,21.20
2008,06,29,11,29,21.30
2008,06,29,11,30,21.40
2008,06,29,11,31,21.40
2008,06,29,11,32,21.50
2008,06,29,11,33,21.50
2008,06,29,11,34,21.70
2008,06,29,11,35,21.80
2008,06,29,11,36,21.80
2008,06,29,11,37,21.90
2008,06,29,11,38,21.80
2008,06,29,11,39,21.80
2008,06,29,11,40,21.70
2008,06,29,11,41,21.70
2008,06,29,11,42,21.70
2008,06,29,11,43,21.90
2008,06,29,11,44,22.00
2008,06,29,11,45,22.10
2008,06,29,11,46,22.00
2008,06,29,11,47,21.80
2008,06,29,11,48,21.70
2008,06,29,11,49,21.40
2008,06,29,11,50,21.10
2008,06,29,11,51,20.90
2008,06,29,11,52,20.80
2008,06,29,11,53,20.80
2008,06,29,11,54,20.80
2008,06,29,11,55,20.80
2008,06,29,11,56,20.80
2008,06,29,11,57,20.80
2008,06,29,11,58,20.90
2008,06,29,11,59,21.00
2008,06,29,12,00,20.90
2008,06,29,12,01,20.90
2008,06,29,12,02,20.90
2008,06,29,12,03,21.00
2008,06,29,12,04,21.10
2008,06,29,12,05,21.30
2008,06,29,12,06,21.20
2008,06,29,12,07,21.10
2008,06,29,12,08,21.00
2008,06,29,12,09,21.10
2008,06,29,12,10,21.00
2008,06,29,12,11,21.10
2008,06,29,12,12,21.00
2008,06,29,12,13,20.90
2008,06,29,12,14,20.70
2008,06,29,12,15,20.50
2008,06,29,12,16,20.40
2008,06,29,12,17,20.30
2008,06,29,12,18,20.50
2008,06,29,12,19,20.70
2008,06,29,12,20,20.90
2008,06,29,12,21,21.10
2008,06,29,12,22,21.20
2008,06,29,12,23,21.30
2008,06,29,12,24,21.40
2008,06,29,12,25,21.50
2008,06,29,12,26,21.60
2008,06,29,12,27,21.60
2008,06,29,12,28,21.70
2008,06,29,12,29,21.70
2008,06,29,12,30,21.70
2008,06,29,12,31,21.60
2008,06,29,12,32,21.40
2008,06,29,12,33,21.30
2008,06,29,12,34,21.30
2008,06,29,12,35,21.20
2008,06,29,12,36,21.10
2008,06,29,12,37,21.10
2008,06,29,12,38,21.00
2008,06,29,12,39,20.80
2008,06,29,12,40,20.70
2008,06,29,12,41,20.50
2008,06,29,12,42,20.30
2008,06,29,12,43,20.30
2008,06,29,12,44,20.30
2008,06,29,12,45,20.30
2008,06,29,12,46,20.30
2008,06,29,12,47,20.30
2008,06,29,12,48,20.30
2008,06,29,12,49,20.30
2008,06,29,12,50,20.30
2008,06,29,12,51,20.20
2008,06,29,12,52,20.30
2008,06,29,12,53,20.30
2008,06,29,12,54,20.40
2008,06,29,12,55,20.40
2008,06,29,12,56,20.40
2008,06,29,12,57,20.30
2008,06,29,12,58,20.20
2008,06,29,12,59,20.10
2008,06,29,13,00,20.00
2008,06,29,13,01,19.80
2008,06,29,13,02,19.70
2008,06,29,13,03,19.50
2008,06,29,13,04,19.50
2008,06,29,13,05,19.50
2008,06,29,13,06,19.50
2008,06,29,13,07,19.50
2008,06,29,13,08,19.50
2008,06,29,13,09,19.60
2008,06,29,13,10,19.60
2008,06,29,13,11,19.70
2008,06,29,13,12,19.70
2008,06,29,13,13,19.70
2008,06,29,13,14,19.80
2008,06,29,13,15,19.90
2008,06,29,13,16,20.00
2008,06,29,13,17,20.00
2008,06,29,13,18,19.90
2008,06,29,13,19,19.90
2008,06,29,13,20,19.90
2008,06,29,13,21,19.90
2008,06,29,13,22,19.90
2008,06,29,13,23,20.00
2008,06,29,13,24,20.10
2008,06,29,13,25,20.20
2008,06,29,13,26,20.20
2008,06,29,13,27,20.30
2008,06,29,13,28,20.40
2008,06,29,13,29,20.40
2008,06,29,13,30,20.40
2008,06,29,13,31,20.30
2008,06,29,13,32,20.30
2008,06,29,13,33,20.30
2008,06,29,13,34,20.30
2008,06,29,13,35,20.30
2008,06,29,13,36,20.40
2008,06,29,13,37,20.40
2008,06,29,13,38,20.50
2008,06,29,13,39,20.50
2008,06,29,13,40,20.50
2008,06,29,13,41,20.50
2008,06,29,13,42,20.40
2008,06,29,13,43,20.50
2008,06,29,13,44,20.60
2008,06,29,13,45,20.70
2008,06,29,13,46,20.60
2008,06,29,13,47,20.50
2008,06,29,13,48,20.40
2008,06,29,13,49,20.30
2008,06,29,13,50,20.30
2008,06,29,13,51,20.20
2008,06,29,13,52,20.20
2008,06,29,13,53,20.20
2008,06,29,13,54,20.20
2008,06,29,13,55,20.20
2008,06,29,13,56,20.30
2008,06,29,13,57,20.40
2008,06,29,13,58,20.40
2008,06,29,13,59,20.50
2008,06,29,14,00,20.40
2008,06,29,14,01,20.40
2008,06,29,14,02,20.30
2008,06,29,14,03,20.30
2008,06,29,14,04,20.30
2008,06,29,14,05,20.40
2008,06,29,14,06,20.50
2008,06,29,14,07,20.40
2008,06,29,14,08,20.40
2008,06,29,14,09,20.40
2008,06,29,14,10,20.40
2008,06,29,14,11,20.30
2008,06,29,14,12,20.30
2008,06,29,14,13,20.50
2008,06,29,14,14,20.50
2008,06,29,14,15,20.50
2008,06,29,14,16,20.60
2008,06,29,14,17,20.60
2008,06,29,14,18,20.60
2008,06,29,14,19,20.60
2008,06,29,14,20,20.60
2008,06,29,14,21,20.60
2008,06,29,14,22,20.70
2008,06,29,14,23,20.90
2008,06,29,14,24,20.90
2008,06,29,14,25,21.00
2008,06,29,14,26,21.10
2008,06,29,14,27,21.10
2008,06,29,14,28,21.30
2008,06,29,14,29,21.50
2008,06,29,14,30,21.50
2008,06,29,14,31,21.60
2008,06,29,14,32,21.70
2008,06,29,14,33,21.70
2008,06,29,14,34,21.80
2008,06,29,14,35,21.80
2008,06,29,14,36,21.80
2008,06,29,14,37,21.80
2008,06,29,14,38,21.80
2008,06,29,14,39,21.80
2008,06,29,14,40,21.70
2008,06,29,14,41,21.70
2008,06,29,14,42,21.70
2008,06,29,14,43,21.70
2008,06,29,14,44,21.80
2008,06,29,14,45,21.90
2008,06,29,14,46,22.00
2008,06,29,14,47,22.10
2008,06,29,14,48,22.20
2008,06,29,14,49,22.30
2008,06,29,14,50,22.30
2008,06,29,14,51,22.40
2008,06,29,14,52,22.40
2008,06,29,14,53,22.50
2008,06,29,14,54,22.60
2008,06,29,14,55,22.50
2008,06,29,14,56,22.40
2008,06,29,14,57,22.40
2008,06,29,14,58,22.30
2008,06,29,14,59,22.30
2008,06,29,15,00,22.40
2008,06,29,15,01,22.40
2008,06,29,15,02,22.40
2008,06,29,15,03,22.40
2008,06,29,15,04,22.50
2008,06,29,15,05,22.50
2008,06,29,15,06,22.60
2008,06,29,15,07,22.60
2008,06,29,15,08,22.70
2008,06,29,15,09,22.80
2008,06,29,15,10,22.90
2008,06,29,15,11,23.00
2008,06,29,15,12,23.10
2008,06,29,15,13,23.20
2008,06,29,15,14,23.30
2008,06,29,15,15,23.40
2008,06,29,15,16,23.50
2008,06,29,15,17,23.50
2008,06,29,15,18,23.40
2008,06,29,15,19,23.30
2008,06,29,15,20,23.20
2008,06,29,15,21,23.20
2008,06,29,15,22,23.20
2008,06,29,15,23,23.20
2008,06,29,15,24,23.30
2008,06,29,15,25,23.30
2008,06,29,15,26,23.30
2008,06,29,15,27,23.30
2008,06,29,15,28,23.30
2008,06,29,15,29,23.30
2008,06,29,15,30,23.20
2008,06,29,15,31,23.10
2008,06,29,15,32,23.10
2008,06,29,15,33,23.10
2008,06,29,15,34,23.00
2008,06,29,15,35,23.00
2008,06,29,15,36,23.00
2008,06,29,15,37,23.00
2008,06,29,15,38,23.00
2008,06,29,15,39,23.00
2008,06,29,15,40,23.00
2008,06,29,15,41,23.10
2008,06,29,15,42,23.10
2008,06,29,15,43,23.20
2008,06,29,15,44,23.20
2008,06,29,15,45,23.10
2008,06,29,15,46,23.00
2008,06,29,15,47,22.90
2008,06,29,15,48,22.80
2008,06,29,15,49,22.80
2008,06,29,15,50,22.80
2008,06,29,15,51,22.70
2008,06,29,15,52,22.70
2008,06,29,15,53,22.70
2008,06,29,15,54,22.70
2008,06,29,15,55,22.70
2008,06,29,15,56,22.80
2008,06,29,15,57,22.90
2008,06,29,15,58,23.00
2008,06,29,15,59,22.90
2008,06,29,16,00,22.90
2008,06,29,16,01,22.90
2008,06,29,16,02,22.90
2008,06,29,16,03,22.90
2008,06,29,16,04,22.80
2008,06,29,16,05,22.70
2008,06,29,16,06,22.80
2008,06,29,16,07,22.90
2008,06,29,16,08,23.00
2008,06,29,16,09,23.20
2008,06,29,16,10,23.20
2008,06,29,16,11,23.10
2008,06,29,16,12,23.20
2008,06,29,16,13,23.20
2008,06,29,16,14,23.10
2008,06,29,16,15,23.10
2008,06,29,16,16,23.10
2008,06,29,16,17,23.10
2008,06,29,16,18,23.00
2008,06,29,16,19,23.00
2008,06,29,16,20,22.90
2008,06,29,16,21,23.00
2008,06,29,16,22,23.00
2008,06,29,16,23,23.10
2008,06,29,16,24,23.10
2008,06,29,16,25,23.20
2008,06,29,16,26,23.20
2008,06,29,16,27,23.20
2008,06,29,16,28,23.20
2008,06,29,16,29,23.30
2008,06,29,16,30,23.20
2008,06,29,16,31,23.30
2008,06,29,16,32,23.30
2008,06,29,16,33,23.40
2008,06,29,16,34,23.50
2008,06,29,16,35,23.70
2008,06,29,16,36,23.80
2008,06,29,16,37,23.90
2008,06,29,16,38,24.00
2008,06,29,16,39,24.10
2008,06,29,16,40,24.20
2008,06,29,16,41,24.20
2008,06,29,16,42,24.20
2008,06,29,16,43,24.10
2008,06,29,16,44,24.10
2008,06,29,16,45,24.10
2008,06,29,16,46,24.00
2008,06,29,16,47,24.00
2008,06,29,16,48,23.80
2008,06,29,16,49,23.70
2008,06,29,16,50,23.70
2008,06,29,16,51,23.70
2008,06,29,16,52,23.70
2008,06,29,16,53,23.80
2008,06,29,16,54,23.90
2008,06,29,16,55,24.00
2008,06,29,16,56,23.90
2008,06,29,16,57,23.80
2008,06,29,16,58,23.70
2008,06,29,16,59,23.60
2008,06,29,17,00,23.40
2008,06,29,17,01,23.20
2008,06,29,17,02,22.90
2008,06,29,17,03,22.70
2008,06,29,17,04,22.50
2008,06,29,17,05,22.30
2008,06,29,17,06,22.30
2008,06,29,17,07,22.20
2008,06,29,17,08,22.30
2008,06,29,17,09,22.30
2008,06,29,17,10,22.30
2008,06,29,17,11,22.30
2008,06,29,17,12,22.40
2008,06,29,17,13,22.50
2008,06,29,17,14,22.50
2008,06,29,17,15,22.60
2008,06,29,17,16,22.80
2008,06,29,17,17,22.90
2008,06,29,17,18,23.10
2008,06,29,17,19,23.30